GFSWCAN_prec_cthk_153.txt.gz
RH
89 93 98 97 98 94 97 98 98 98 97 97 97 98 99 98 99 97 93 94 86 79 61 59 70 76 90 97 97 95 97 97 95 98 95 98 92 98 98 85 85 80 93 93 96 96 85 51 59 60 50 46 48 50
90 97 97 94 98 97 90 94 96 98 98 98 98 97 98 96 98 99 97 89 89 89 62 60 60 69 91 93 95 95 98 98 89 89 86 89 91 88 97 98 93 93 79 84 84 79 69 57 59 60 57 52 50 51
97 97 97 98 97 86 88 94 97 98 98 98 98 96 98 99 98 96 88 88 94 91 77 65 54 57 71 86 89 90 89 94 85 78 83 89 89 88 95 95 94 97 93 94 87 74 74 67 58 57 60 64 60 56
96 98 98 96 90 87 87 91 94 97 98 98 98 98 97 98 96 93 81 84 85 84 80 56 55 66 72 81 88 84 87 99 92 81 79 84 86 85 89 83 81 83 87 82 80 71 72 63 63 66 63 58 59 59
96 97 93 91 96 88 86 94 98 99 97 97 95 96 98 95 88 85 85 81 76 79 85 68 65 73 83 86 99 98 94 98 95 90 88 88 86 85 81 77 73 74 75 73 72 68 67 63 63 66 65 63 59 58
96 97 98 96 91 94 98 99 97 97 98 98 97 93 88 84 84 94 99 83 77 83 88 94 86 75 78 90 99 100 99 96 98 88 93 85 76 72 67 62 55 61 65 65 67 67 65 68 68 69 67 64 62 62
83 81 86 91 97 98 98 97 95 93 91 89 82 75 78 81 81 78 80 80 72 88 90 91 98 92 89 91 89 93 98 96 91 88 85 76 60 48 45 40 23 18 29 38 42 45 47 46 50 60 64 64 61 61
98 97 90 88 86 84 80 71 60 54 54 58 66 73 79 82 82 79 82 91 79 89 90 97 98 99 95 91 89 88 85 77 70 64 58 48 43 42 39 24 20 21 22 22 23 28 30 32 36 51 54 59 59 59
89 80 66 51 40 39 40 43 47 51 60 69 73 76 83 83 79 79 89 94 90 86 92 96 94 98 94 93 85 84 79 72 66 62 55 47 43 41 26 21 22 24 29 27 31 41 38 36 34 37 56 56 52 51
57 46 40 42 48 53 62 73 84 91 96 96 98 96 93 80 82 84 86 90 94 91 99 89 82 85 82 85 81 76 72 74 71 66 60 55 43 28 28 33 37 41 42 39 39 35 37 40 45 51 57 63 63 59
55 45 57 70 81 86 91 94 98 98 99 96 99 99 93 94 97 93 98 98 96 93 93 98 92 91 80 80 81 76 77 71 68 65 64 56 45 33 41 42 47 54 52 46 42 51 66 65 62 61 64 68 73 70
53 67 85 86 91 90 92 98 97 97 95 96 97 98 94 91 97 94 92 92 89 81 83 87 81 76 72 68 67 66 64 64 63 64 65 53 33 33 36 51 67 57 46 50 53 59 72 79 79 74 72 75 77 85
67 83 84 82 79 78 80 87 94 94 88 83 77 75 77 77 80 80 80 77 64 69 73 72 68 65 65 62 66 67 67 64 59 61 46 37 41 56 65 76 78 76 65 63 63 64 69 77 81 82 89 86 91 93
75 76 76 70 63 59 58 56 54 54 56 60 61 64 67 69 73 73 69 65 61 55 51 51 52 50 54 59 64 64 61 57 60 59 45 38 58 71 79 82 81 84 83 80 81 80 81 83 91 93 93 91 86 80
71 65 62 60 57 53 50 46 44 45 45 47 48 55 55 56 57 54 54 51 47 40 40 45 49 49 55 56 56 55 58 55 52 44 40 50 77 82 82 77 69 65 65 67 70 77 80 82 83 84 89 85 83 84
58 55 54 51 50 47 48 52 52 53 52 53 56 56 54 57 58 54 54 54 56 53 55 59 62 59 59 61 64 61 61 57 43 43 48 70 85 81 78 75 73 73 75 74 71 74 80 85 89 93 94 92 91 87
64 66 64 62 63 68 69 69 69 73 74 72 77 73 65 53 50 54 59 63 66 68 72 73 72 74 79 81 75 72 66 52 46 49 48 68 81 73 64 71 72 71 73 73 73 67 66 72 83 89 89 83 80 78
70 73 75 75 73 74 77 78 83 87 90 92 94 93 91 88 84 73 65 61 59 64 74 73 65 68 67 60 59 52 47 53 49 47 62 73 76 71 67 66 65 68 68 67 69 63 54 51 54 54 53 54 53 54
74 75 78 78 78 79 79 80 82 85 86 87 87 87 88 89 90 93 91 80 70 66 65 65 67 67 62 60 63 67 79 86 80 78 81 77 71 69 68 67 64 63 63 67 70 66 57 53 55 56 58 58 59 60
65 67 70 74 81 84 85 86 85 85 85 84 85 83 83 83 83 87 93 96 94 88 82 81 74 73 78 78 87 91 90 90 86 81 77 75 72 71 69 68 66 66 68 67 67 65 60 59 60 65 68 70 71 71
48 62 73 79 82 83 87 91 90 91 89 89 88 88 85 82 82 83 90 92 89 85 82 77 85 87 89 90 90 88 86 83 79 75 74 72 73 70 70 73 74 69 71 71 69 67 64 69 73 73 73 74 75 75
20 26 33 41 57 74 85 93 96 96 95 94 93 91 88 85 89 90 93 91 86 78 75 78 83 88 90 91 90 87 86 84 83 79 74 68 67 71 73 75 81 78 75 72 71 68 70 75 77 80 79 77 74 72
29 33 36 40 48 52 57 64 71 78 87 90 92 90 88 90 92 95 96 92 90 88 83 81 84 89 92 93 89 85 84 83 81 79 75 71 70 75 79 83 83 77 75 75 72 73 75 76 78 76 75 74 73 73
36 38 40 44 47 52 54 55 57 61 63 65 68 76 86 92 92 92 90 90 90 92 96 98 97 95 95 94 93 93 92 89 88 86 83 78 77 78 80 80 77 78 79 75 73 72 73 74 75 75 76 76 73 71
38 40 40 46 51 53 50 51 52 54 56 57 56 56 62 74 82 81 77 87 91 93 95 98 99 98 98 97 97 97 97 93 90 89 89 85 81 79 79 81 81 82 78 76 77 73 70 72 76 78 75 72 71 71
44 47 45 50 54 53 54 53 55 54 54 54 52 50 50 52 56 59 69 74 92 98 98 98 99 98 98 98 98 97 96 93 91 90 90 89 87 87 86 86 84 82 80 77 75 75 75 78 78 75 73 70 65 59
55 57 57 56 54 52 52 49 48 51 50 51 53 56 54 52 53 60 66 69 70 74 83 89 93 96 98 98 98 98 96 92 89 87 88 91 92 93 92 88 84 82 79 77 77 79 80 78 74 71 65 56 56 61
64 63 65 64 66 66 67 66 64 63 60 58 59 60 57 54 58 61 59 62 67 68 69 72 85 93 98 98 98 98 97 94 92 91 91 90 89 88 86 85 84 84 84 83 83 81 78 75 73 64 59 64 71 75
88 88 84 80 76 74 73 73 74 72 77 77 73 70 65 59 50 45 42 41 42 48 56 64 70 81 89 97 98 98 98 98 96 93 94 95 94 93 92 90 88 87 86 84 83 81 79 72 64 65 72 79 84 86
96 96 93 92 92 91 87 86 82 81 82 78 76 70 64 61 58 55 49 41 39 39 44 56 63 73 81 87 92 97 98 98 98 98 96 97 96 94 91 89 87 87 86 85 82 76 72 66 69 78 85 90 92 93
94 97 97 96 93 86 86 88 88 89 89 79 70 67 54 44 47 56 57 55 52 48 44 43 47 57 71 79 85 88 93 98 97 98 98 97 97 95 93 89 87 86 81 76 74 69 69 74 77 83 88 91 95 97
94 98 96 96 91 88 91 94 89 83 79 81 79 79 72 59 50 51 61 61 62 61 56 51 49 48 51 61 68 71 74 79 82 83 83 83 85 86 85 82 77 75 72 69 69 73 77 80 81 84 88 90 94 98
83 84 89 91 87 81 79 79 81 76 74 75 84 89 90 77 71 68 67 64 64 66 66 64 63 60 56 55 56 56 58 59 60 63 66 71 73 73 71 69 68 68 71 76 77 76 78 81 84 88 90 94 98 99

GFSWCAN_prec_cthk_159.txt.gz
RH
76 84 88 85 84 88 91 92 89 96 98 98 97 94 88 86 89 88 82 88 90 85 80 77 75 70 71 69 62 56 48 61 71 91 91 86 95 93 82 64 66 79 88 92 91 91 80 55 59 60 47 49 48 48
97 78 73 78 82 83 86 96 92 90 98 98 98 96 94 93 95 98 93 92 96 92 75 75 72 70 68 66 63 56 48 54 85 89 96 97 97 90 83 79 84 82 75 76 75 65 55 60 60 53 52 53 50 51
88 92 95 72 79 82 87 95 97 90 93 98 99 97 97 97 98 97 98 90 99 92 81 76 71 75 69 68 62 63 54 54 78 97 97 98 97 94 88 74 75 79 87 95 95 73 70 66 66 69 67 62 57 58
98 99 99 97 91 90 90 97 97 96 94 96 98 98 98 98 98 99 96 87 97 98 94 70 81 74 67 65 58 51 44 55 80 94 97 97 96 92 92 74 69 71 75 79 77 72 68 62 64 76 75 72 68 65
92 93 92 95 96 97 96 95 95 96 96 95 97 96 97 98 98 99 97 95 98 97 90 88 81 65 61 61 51 51 50 63 80 96 95 97 93 91 93 82 71 65 65 70 67 68 72 77 87 84 79 79 73 67
90 93 95 93 93 96 95 93 99 98 93 95 97 98 98 99 98 98 98 98 84 98 98 92 63 56 56 62 60 54 55 77 90 96 97 95 91 97 90 76 67 60 57 59 60 63 66 72 75 78 73 70 72 72
84 82 82 84 86 88 89 90 93 94 94 95 94 96 99 98 96 98 90 93 95 96 88 69 61 70 81 75 60 66 73 90 92 96 88 90 96 98 89 76 58 55 56 52 60 61 66 65 67 65 65 67 70 71
80 80 81 82 81 81 82 88 93 95 93 98 99 94 96 96 98 98 93 84 80 76 67 65 69 72 86 96 86 84 90 98 95 94 91 90 92 93 85 68 55 44 30 19 24 35 41 43 41 39 42 49 56 62
80 82 85 89 93 92 94 97 97 98 98 98 95 95 96 96 91 93 87 77 72 63 64 67 76 82 96 98 97 97 99 98 95 93 95 98 98 93 73 49 31 22 19 19 19 18 17 20 25 30 32 35 40 45
42 39 42 57 64 62 63 68 77 86 87 85 88 85 89 90 87 84 82 75 75 72 72 79 85 91 95 97 98 97 98 93 88 85 97 97 86 73 41 34 26 21 24 29 28 26 25 22 24 25 29 32 32 36
79 78 74 65 62 70 71 66 61 56 56 51 53 61 68 74 78 76 72 65 62 68 74 72 73 80 84 98 98 98 95 89 90 82 73 71 62 50 39 31 31 30 26 25 25 37 43 48 42 42 43 39 41 42
83 88 90 83 81 80 83 86 84 69 67 68 64 71 76 74 69 69 71 67 68 73 76 83 84 84 85 98 97 93 92 86 82 78 66 63 46 40 39 35 31 31 34 37 46 48 47 45 45 47 52 58 57 54
85 86 85 85 88 87 83 88 96 89 79 83 81 84 90 89 91 78 79 97 85 84 83 90 97 98 98 93 89 80 80 72 67 57 52 41 37 39 38 38 39 44 52 61 65 55 53 53 55 55 63 68 68 77
70 77 77 80 83 87 89 90 92 90 90 93 93 96 95 92 91 81 74 78 81 79 79 90 92 84 79 75 72 70 67 62 59 55 50 44 44 46 47 50 57 62 61 76 78 73 65 64 66 65 71 77 83 90
57 56 55 55 60 63 72 77 84 90 82 74 75 79 89 93 94 88 87 83 80 87 91 85 77 72 72 69 64 63 63 56 48 45 38 40 49 51 52 53 56 56 66 74 72 67 68 70 75 83 88 89 91 97
53 52 50 50 51 52 56 62 65 69 65 58 58 60 68 80 80 84 85 78 77 84 77 68 62 53 50 49 50 48 47 48 39 35 35 39 40 45 53 59 60 67 73 73 75 74 73 76 83 82 85 87 88 88
56 53 50 59 62 60 67 75 82 82 67 57 63 65 57 53 59 58 56 62 62 70 67 56 49 42 45 46 47 46 43 31 34 37 43 42 43 43 42 52 68 80 76 74 70 66 68 71 75 87 78 76 87 89
54 56 63 69 69 65 73 78 84 87 90 87 83 72 64 63 58 50 49 52 57 58 57 54 48 48 49 47 46 46 48 44 49 52 57 61 62 60 55 53 74 77 70 68 66 63 64 65 66 72 72 68 70 70
63 69 72 73 71 65 67 81 85 85 85 86 86 86 84 81 80 80 83 72 65 68 69 69 67 59 53 51 54 54 52 51 53 58 67 74 75 71 70 69 73 77 73 66 62 61 62 61 62 63 62 62 57 55
51 49 55 61 65 69 73 82 86 87 87 89 91 91 89 89 89 84 85 90 95 91 80 75 67 60 56 58 53 49 56 60 63 68 76 88 82 75 76 79 79 76 70 65 64 64 67 64 64 63 65 64 62 62
31 45 55 60 69 74 79 84 89 94 97 97 97 97 95 95 94 89 87 90 93 94 96 94 89 75 62 58 60 73 81 78 83 85 88 88 85 81 79 77 72 70 69 66 67 70 70 71 72 72 71 68 71 74
24 27 38 41 42 46 51 59 68 81 88 97 98 98 97 95 92 93 95 96 96 94 93 95 91 85 77 74 77 84 89 89 87 90 88 86 87 84 79 73 69 70 68 69 70 75 77 78 78 76 76 75 78 80
35 36 37 39 38 41 50 53 58 64 68 73 80 86 89 90 93 95 97 98 98 98 94 92 92 89 83 81 83 88 95 93 91 90 90 88 84 81 78 76 75 72 71 75 80 83 83 84 82 81 80 82 82 79
48 46 44 46 48 54 55 60 61 63 63 63 63 63 64 70 79 89 98 98 98 98 97 97 94 93 91 88 88 90 93 96 95 95 94 91 87 85 81 80 79 79 80 83 84 85 86 86 86 85 83 81 82 82
58 56 51 58 62 60 60 61 63 59 57 53 51 53 59 62 68 74 78 88 92 91 89 88 90 97 96 96 95 95 95 95 95 94 95 95 95 94 93 91 89 85 84 86 87 87 89 88 84 80 80 82 83 85
78 80 77 75 74 72 72 69 65 61 56 53 57 60 59 56 52 56 63 69 66 71 77 80 88 89 94 98 98 98 97 96 96 97 98 98 98 98 97 94 92 91 90 90 91 91 86 82 80 82 83 85 86 85
90 89 83 77 73 69 63 62 61 60 61 61 59 58 60 59 60 68 73 67 61 58 55 55 63 76 86 92 97 97 96 97 97 97 98 98 98 98 97 96 96 96 96 96 92 88 86 87 84 84 87 87 85 84
98 97 95 91 87 88 87 87 87 87 91 88 82 85 81 75 76 75 66 59 55 50 50 51 51 54 59 69 90 98 98 98 97 97 98 98 98 97 96 97 98 98 97 93 90 92 91 89 88 88 88 86 87 88
96 94 97 97 98 98 98 98 98 97 97 97 94 86 80 78 73 70 65 61 56 51 47 44 42 42 43 50 67 82 90 97 97 97 97 98 98 97 96 96 97 98 98 97 95 93 92 92 92 91 90 91 90 78
85 85 89 92 95 98 98 99 96 91 91 97 98 95 91 92 90 87 80 69 59 58 63 63 55 47 45 53 67 78 83 87 90 94 97 97 97 97 98 98 98 98 97 97 97 97 96 95 94 95 94 90 77 72
75 75 85 82 86 92 86 86 78 75 79 83 85 85 85 86 88 92 93 91 84 69 66 69 64 60 55 55 67 79 81 82 85 90 92 94 96 97 97 97 98 98 98 98 98 98 98 97 98 96 88 78 74 79
60 63 70 76 71 69 87 81 77 74 77 79 85 91 93 91 87 86 86 87 89 85 74 73 71 68 65 62 64 73 79 81 82 83 85 86 87 92 97 98 98 98 98 98 98 98 98 98 96 83 76 79 82 82
56 57 63 67 65 63 64 67 74 81 85 87 91 90 84 89 94 91 87 82 84 88 90 81 80 79 76 73 71 69 68 69 70 73 74 74 76 81 88 93 96 97 97 98 98 97 93 83 78 80 82 80 78 80

GFSWCAN_prec_cthk_162.txt.gz
RH
89 86 79 90 92 94 95 92 86 92 97 98 96 96 93 91 83 71 79 74 77 81 78 79 77 78 76 73 72 67 58 55 55 69 80 79 80 75 85 74 78 83 92 90 84 87 78 49 59 67 49 57 53 50
90 92 94 79 86 89 96 96 94 89 94 98 97 96 98 96 90 78 87 85 86 82 79 77 76 75 74 74 76 73 66 58 58 75 91 92 90 85 90 83 72 76 71 76 75 66 63 63 62 64 63 57 52 53
89 89 94 76 85 83 88 92 94 93 90 96 98 97 98 96 94 84 84 88 91 87 81 75 68 72 68 72 74 74 71 68 60 58 79 83 88 88 89 84 82 78 76 83 73 61 59 59 57 58 62 59 63 61
97 93 98 88 84 90 86 88 92 97 93 91 97 97 98 97 94 91 85 83 93 91 82 63 69 67 75 78 77 74 72 70 76 78 74 79 86 81 87 89 89 88 82 73 60 58 62 55 58 61 64 65 70 69
81 90 99 96 87 86 86 86 92 96 94 89 96 97 96 98 97 97 96 82 90 93 83 75 71 69 82 83 80 77 73 68 66 67 65 74 82 90 87 91 68 74 70 66 57 56 56 60 65 70 73 73 73 70
90 90 92 95 96 94 89 89 96 95 92 91 94 95 98 99 99 99 97 92 89 96 94 83 71 76 86 85 80 79 72 70 72 69 66 69 77 92 94 86 83 76 67 60 59 59 58 60 64 67 76 90 86 83
83 95 96 94 96 96 94 94 94 95 96 96 96 96 99 99 99 98 88 78 85 96 99 95 85 78 78 79 82 82 79 78 75 71 71 71 93 97 90 78 81 63 60 62 63 71 72 74 75 73 74 81 81 81
81 79 84 87 90 95 97 97 98 98 98 97 98 99 98 97 99 98 94 86 92 99 98 95 80 67 73 81 97 88 83 81 77 82 92 94 93 96 86 76 76 69 64 60 36 44 51 51 59 56 52 53 59 68
89 86 84 85 87 86 90 92 92 96 97 99 96 92 98 98 97 95 96 97 95 95 88 69 62 66 72 90 96 97 96 97 93 94 92 95 93 87 75 80 76 65 51 27 23 22 23 24 21 28 33 33 36 41
61 63 62 61 79 95 91 96 98 96 99 97 98 97 98 99 95 96 99 94 89 80 70 60 59 67 81 91 98 99 97 97 94 88 91 91 84 87 87 79 63 34 26 25 28 29 26 25 25 21 20 22 22 24
70 75 70 66 62 56 60 76 84 90 91 87 88 93 98 98 94 93 90 82 73 67 54 54 61 78 86 89 94 98 98 95 92 93 93 87 88 88 85 67 46 42 37 32 31 29 29 32 36 38 39 39 39 38
81 77 77 78 79 78 70 56 51 48 46 46 50 64 77 84 88 86 79 66 58 51 56 64 79 86 88 89 96 98 97 94 95 90 87 79 82 80 69 59 50 46 42 36 32 37 43 40 46 46 44 47 50 49
81 80 79 79 78 80 83 77 66 64 59 55 59 66 68 68 69 65 62 63 54 56 81 86 96 96 94 93 92 93 92 88 84 84 68 60 57 60 55 50 46 36 34 41 48 53 51 51 52 53 57 61 62 63
76 71 75 78 80 81 83 84 76 80 85 97 94 92 93 93 91 66 57 67 78 78 81 89 98 98 95 91 85 83 79 75 68 58 49 46 45 48 45 42 41 42 40 42 49 63 69 66 64 65 72 71 70 71
60 59 60 63 65 66 73 80 85 91 90 86 88 91 96 94 94 94 85 81 79 83 88 98 91 87 83 83 78 73 69 58 47 41 40 41 46 46 45 43 41 38 40 48 55 67 71 70 68 71 74 78 81 82
55 54 54 61 59 59 72 78 81 82 82 74 74 76 92 90 89 90 90 87 84 83 87 82 74 68 65 60 56 51 41 36 37 36 35 37 35 34 36 37 37 38 45 58 66 69 77 77 69 70 76 80 81 80
51 53 52 60 69 68 80 85 96 93 79 64 64 66 57 67 71 73 75 77 76 83 81 69 60 49 47 44 41 37 37 35 34 33 35 36 38 40 40 40 40 44 49 64 72 69 68 65 66 68 72 79 84 82
48 49 53 62 75 75 76 89 97 98 93 81 79 75 63 53 52 54 56 61 67 71 69 67 56 51 50 47 40 38 38 40 39 43 47 46 49 54 53 51 53 49 52 69 72 69 66 63 64 64 66 69 73 74
52 51 58 68 75 75 69 80 90 90 93 95 93 90 90 89 88 84 76 64 59 63 64 60 58 52 46 43 46 49 47 50 52 50 50 57 60 65 68 69 69 64 61 78 76 70 65 62 61 60 59 60 60 62
53 56 58 64 70 74 72 75 81 87 87 90 93 95 93 92 92 91 90 89 93 92 85 79 71 67 66 62 59 59 60 58 57 60 60 63 72 86 85 79 78 79 86 83 78 68 66 65 63 61 62 63 62 64
36 48 53 52 57 65 72 77 84 89 91 93 95 96 96 97 98 97 95 94 93 91 91 92 93 89 82 67 60 62 63 61 68 83 82 81 91 95 92 85 87 85 82 77 73 69 66 67 68 66 68 73 71 71
31 31 37 42 45 52 60 66 74 75 79 89 94 98 98 96 94 94 96 96 95 96 97 96 97 97 94 91 81 72 67 80 94 98 93 90 93 93 93 89 85 80 75 72 70 68 69 71 75 75 77 76 75 74
43 41 41 41 40 45 56 56 59 61 66 69 72 84 90 94 96 96 97 98 98 98 98 96 95 96 94 89 82 79 85 91 97 94 92 95 95 92 89 85 80 77 73 70 71 72 75 79 83 83 82 79 78 78
63 55 49 51 49 54 57 62 60 63 66 69 68 68 68 69 76 85 95 97 98 97 93 92 94 93 93 93 89 85 84 88 95 97 97 97 96 93 89 87 85 83 81 77 76 79 81 83 84 85 84 83 80 76
72 70 66 66 65 61 62 65 68 65 67 63 58 61 62 62 68 75 79 83 83 89 86 83 87 92 96 95 95 94 93 94 96 98 97 95 95 94 92 92 89 89 88 86 83 83 85 87 89 90 89 83 79 81
90 90 85 80 78 75 72 72 71 69 62 60 62 62 62 60 58 63 72 73 71 67 61 71 82 86 94 98 98 98 98 97 98 98 98 98 97 97 97 98 96 93 93 92 90 89 89 91 88 85 83 80 81 85
94 94 92 90 87 84 79 72 67 64 61 61 61 60 61 58 62 74 72 68 64 59 54 53 53 59 70 83 94 96 98 97 96 96 96 97 98 98 98 98 97 95 95 96 96 96 95 89 86 86 89 89 88 88
98 94 97 96 92 87 86 83 82 88 90 86 82 82 82 82 87 84 77 68 60 55 50 48 46 46 49 54 66 83 92 97 96 94 96 98 98 98 98 98 98 97 97 98 98 97 94 90 90 90 91 91 89 89
85 87 95 98 98 97 98 98 98 97 98 97 97 95 91 91 88 87 82 75 69 64 59 55 54 51 46 42 44 60 69 78 85 92 97 98 98 98 98 98 98 98 97 97 98 97 97 97 95 94 93 93 93 95
80 86 91 95 89 97 98 96 92 85 88 96 98 98 98 99 99 98 95 93 89 82 68 59 63 64 59 50 48 59 70 73 77 81 86 89 95 97 97 97 98 98 98 98 98 98 98 98 97 97 96 97 97 95
73 74 77 77 78 82 84 87 89 77 86 90 92 93 97 97 96 94 95 97 96 93 87 78 71 69 66 63 60 69 77 80 81 84 88 88 88 90 95 97 98 98 98 98 98 98 98 98 98 98 98 97 97 94
59 63 69 70 65 64 75 77 88 90 90 95 98 99 99 99 95 91 88 86 88 92 91 86 82 80 76 71 68 73 79 82 81 81 83 83 82 85 87 90 94 98 98 98 98 98 98 98 98 98 98 97 89 80
52 53 59 60 56 59 63 65 72 80 93 98 99 99 99 96 96 97 92 90 87 84 87 87 87 86 85 83 80 77 74 74 76 77 76 76 78 80 82 86 89 93 98 98 98 98 98 98 98 98 94 82 82 81

GFSWCAN_prec_cthk_165.txt.gz
RH
92 89 91 94 82 88 97 88 84 86 97 98 97 92 76 69 74 71 80 74 79 81 78 73 70 72 70 73 78 89 84 74 74 78 77 78 81 75 69 60 66 72 97 86 86 91 83 59 54 56 45 51 55 60
88 85 88 87 79 90 93 88 82 83 92 97 98 96 91 80 79 81 87 85 85 86 82 74 78 73 76 79 86 82 83 75 70 79 87 90 83 85 75 72 68 74 92 85 81 71 65 68 61 69 67 72 70 71
97 90 89 92 85 89 90 91 89 82 85 92 98 97 95 92 91 87 89 90 91 87 83 78 73 74 70 68 71 72 75 77 71 69 68 73 83 75 79 72 75 65 69 75 84 66 71 74 77 74 66 64 63 63
92 91 91 95 82 87 94 95 95 91 85 86 96 98 96 95 96 94 89 91 91 89 83 72 71 65 67 67 67 71 76 77 76 73 82 81 68 67 74 74 69 71 71 86 85 76 72 64 69 66 62 63 64 67
98 98 99 88 85 85 88 93 95 95 92 86 94 99 98 93 98 98 96 92 90 87 87 81 74 72 69 71 79 85 90 86 87 85 83 75 70 66 56 70 58 71 77 94 91 80 77 70 75 68 60 63 72 72
86 96 96 90 94 92 87 87 92 95 95 91 93 97 99 95 99 99 95 87 83 91 89 81 76 74 74 73 80 89 93 92 92 91 79 73 66 79 87 65 59 72 86 83 79 78 73 66 62 62 62 68 78 83
90 93 97 95 91 88 84 86 92 95 97 95 93 97 98 96 99 94 80 74 80 94 94 89 77 70 68 77 78 81 84 92 95 91 86 78 72 72 67 63 62 72 83 80 84 66 60 66 70 74 71 76 76 90
89 97 97 97 94 91 90 90 95 96 94 95 96 98 99 99 97 93 85 78 90 98 99 97 89 83 81 83 79 88 96 97 93 82 76 74 68 80 78 71 71 72 75 71 67 62 55 72 73 71 65 61 66 72
83 80 80 90 95 96 95 95 97 97 98 97 95 96 99 99 98 91 93 97 98 98 93 95 90 91 78 77 79 87 93 98 86 79 75 87 87 86 72 70 80 79 80 76 66 36 36 33 33 35 36 31 38 45
56 69 86 90 94 95 98 99 98 97 97 98 96 98 98 98 98 99 99 98 98 92 87 80 70 70 63 70 91 98 97 94 94 84 88 86 75 75 81 88 92 84 73 52 35 36 35 32 29 25 22 23 24 24
73 70 62 70 84 95 96 97 95 97 97 98 94 94 98 97 96 96 94 91 87 84 78 67 61 59 60 85 93 93 98 91 94 95 93 84 68 71 78 87 89 71 56 44 36 32 33 33 34 35 34 34 38 37
73 75 77 72 60 69 84 92 95 95 89 89 91 98 96 96 95 94 91 85 72 63 58 53 48 54 84 91 95 96 97 94 97 91 92 91 91 88 90 86 80 69 51 43 40 39 36 37 39 40 40 43 43 42
74 71 76 81 79 64 55 52 46 48 54 61 68 70 73 77 85 87 84 75 65 54 52 51 66 85 97 94 98 98 96 96 91 94 83 82 82 90 82 75 70 60 54 46 40 40 42 42 39 39 48 51 53 54
73 76 74 74 78 79 71 68 63 59 57 65 64 66 60 69 59 51 43 57 59 57 59 81 94 98 98 96 92 91 88 84 86 80 73 76 69 71 69 65 62 56 41 35 36 38 42 51 58 64 66 66 66 68
54 58 63 68 67 74 77 77 81 86 90 93 90 95 88 81 89 91 75 79 70 58 70 88 94 97 92 91 84 81 82 76 69 70 69 63 55 53 51 46 42 38 39 41 41 44 48 59 72 73 69 70 74 72
49 48 50 57 62 63 77 87 87 89 91 92 90 93 95 98 97 92 86 80 79 79 85 98 91 91 86 83 78 76 64 57 58 57 51 44 41 39 38 36 36 37 36 36 39 46 55 64 70 71 68 70 75 80
48 55 49 51 58 64 75 95 97 96 83 76 83 84 88 92 97 98 96 93 88 88 94 88 82 72 75 64 55 48 53 54 44 38 37 34 34 33 33 34 34 36 36 36 43 47 56 67 71 70 69 69 72 77
49 56 51 55 62 77 84 93 99 98 93 76 76 77 73 74 78 79 81 84 88 92 93 82 66 55 56 45 43 44 41 37 37 38 37 37 37 39 39 41 45 47 47 46 45 47 63 73 71 68 67 68 70 71
48 47 48 50 62 78 85 82 89 93 93 94 89 76 67 66 69 70 67 65 67 71 80 79 68 61 55 48 51 46 46 46 47 45 43 40 43 45 49 50 58 62 65 63 57 59 74 74 69 63 60 60 61 64
53 53 54 56 67 82 87 83 77 84 84 86 86 88 87 86 85 82 78 69 66 64 63 66 61 64 69 72 68 61 61 63 57 52 48 47 52 57 62 67 73 71 73 75 78 82 81 76 67 64 63 62 62 64
46 54 54 61 70 77 79 78 76 81 84 87 90 91 91 89 89 87 86 85 85 84 84 84 86 86 83 79 72 67 65 61 57 57 60 63 70 73 77 88 89 88 90 89 88 84 78 70 67 66 66 66 68 72
43 40 48 49 60 62 69 72 79 82 83 86 89 93 97 94 93 91 91 89 92 96 93 91 90 89 90 92 93 91 86 71 64 63 70 89 90 88 93 94 91 89 86 81 80 76 73 70 69 71 73 75 79 79
61 52 58 49 42 43 53 52 62 69 70 71 74 76 86 92 96 95 97 99 97 96 95 95 93 94 94 95 92 90 85 78 74 76 87 98 98 97 93 92 89 85 81 77 73 72 70 72 75 78 82 84 85 82
82 76 69 57 54 54 53 58 59 67 67 68 76 81 81 80 77 82 96 97 97 96 94 91 91 91 94 93 90 88 85 84 86 89 97 97 98 97 96 94 91 87 84 82 80 78 76 77 80 84 86 87 87 87
86 88 86 82 70 65 62 64 68 69 71 67 69 71 69 66 69 84 84 86 85 84 88 90 88 87 92 94 94 94 93 91 90 92 96 98 98 98 98 95 94 91 90 88 87 87 85 85 87 90 92 93 94 90
96 97 95 89 85 80 74 74 72 72 71 69 68 66 63 65 65 76 82 80 78 76 74 72 70 75 85 92 97 98 98 97 97 96 96 97 98 98 98 97 95 95 96 96 96 94 93 92 93 95 96 95 91 86
96 97 97 98 97 91 85 81 77 74 72 68 66 64 64 61 63 76 76 68 64 60 57 53 49 51 56 70 77 91 96 98 98 97 95 95 97 98 98 98 98 98 97 98 98 97 97 98 98 95 91 90 88 88
97 97 98 98 98 98 96 92 88 86 83 77 77 71 74 79 80 76 73 69 65 62 59 56 52 49 48 47 50 60 77 91 96 94 94 95 97 98 98 98 98 98 97 98 98 98 98 98 97 94 92 94 95 94
90 94 97 97 95 98 97 98 97 96 92 94 98 96 97 96 94 90 86 82 78 74 69 63 57 54 55 52 47 45 56 69 76 80 84 94 98 98 98 98 98 98 98 98 98 98 98 98 97 95 97 97 96 95
83 87 92 91 89 96 95 96 97 96 94 97 99 99 97 98 98 97 95 92 89 86 83 78 69 61 65 64 57 52 56 63 68 73 77 82 87 89 95 98 98 98 98 98 98 98 98 98 98 98 98 98 98 98
73 75 81 76 80 82 88 91 92 96 95 97 97 99 97 99 98 97 95 95 96 96 94 90 86 78 75 73 68 66 72 75 78 80 82 84 85 86 88 90 95 98 98 98 98 98 98 98 98 98 98 98 98 98
51 57 62 67 71 72 76 79 86 97 98 99 99 99 99 99 98 97 95 90 92 93 96 95 90 89 86 82 80 76 77 81 83 82 81 83 84 84 85 86 89 94 98 99 98 98 98 98 98 98 98 98 98 98
52 56 56 57 52 55 60 67 72 90 97 99 98 98 97 96 98 99 98 95 92 91 88 91 93 91 88 87 86 84 81 80 79 79 80 79 77 77 79 80 83 88 91 94 97 98 98 98 98 98 98 98 98 95

GFSWCAN_prec_cthk_168.txt.gz
RH
88 85 83 88 88 92 79 88 93 90 88 90 98 91 80 74 73 64 63 82 92 93 87 85 84 77 69 61 59 68 78 89 88 87 84 78 71 69 74 63 64 65 80 90 97 97 87 69 71 67 62 59 61 62
75 89 91 82 85 97 84 86 97 97 90 89 97 95 88 83 71 71 71 73 78 83 77 74 69 64 58 62 66 75 81 88 94 92 92 95 95 89 90 80 67 67 74 87 92 96 83 71 68 73 83 72 69 65
87 90 95 92 87 92 86 89 96 98 89 86 94 98 93 86 75 68 79 91 90 87 83 75 64 60 57 59 63 67 69 74 76 70 75 74 70 70 88 86 89 83 81 78 72 66 71 74 69 89 81 71 66 74
89 87 91 93 92 88 89 97 96 89 85 87 97 96 96 92 81 80 85 92 94 89 80 67 64 60 62 57 54 53 57 61 67 76 82 78 75 66 65 73 75 78 77 68 59 58 61 67 78 69 56 55 53 50
98 96 97 96 85 85 92 91 90 82 82 86 96 98 96 95 91 89 91 94 95 86 88 81 71 67 59 53 55 59 64 71 80 91 92 82 79 78 61 59 52 60 60 63 59 62 81 92 86 86 67 52 51 50
94 95 86 85 85 90 91 92 92 83 81 85 92 98 98 97 97 99 98 96 94 93 93 89 80 70 62 63 66 73 77 81 88 88 87 82 79 84 78 62 47 62 62 64 62 75 84 90 91 70 55 52 56 60
95 98 97 93 88 88 92 93 96 94 87 84 91 95 93 97 93 97 91 83 86 95 93 87 72 65 67 74 75 78 83 88 97 97 88 87 83 85 75 67 59 50 52 61 63 77 86 81 74 67 65 63 65 68
97 96 95 94 91 86 90 96 97 97 94 88 92 97 99 97 96 99 94 87 86 89 87 82 70 72 75 78 81 81 88 95 94 96 94 85 75 82 75 59 56 56 65 69 76 82 86 64 70 68 67 67 66 67
86 98 96 92 89 89 92 93 95 99 98 98 98 99 99 97 84 97 97 94 92 90 85 85 82 81 85 84 86 82 83 90 87 91 84 86 79 77 60 57 64 71 77 90 83 89 58 51 54 47 43 38 35 39
84 92 93 96 93 91 92 93 96 95 96 97 98 98 97 96 89 95 99 96 98 94 92 77 75 75 79 79 77 75 92 98 96 88 88 90 78 64 68 75 85 91 93 97 79 64 49 46 47 40 33 29 28 31
65 82 98 95 98 99 95 95 92 93 97 97 95 96 98 98 96 98 98 97 88 83 78 77 70 77 77 75 66 89 92 96 95 89 92 91 81 73 65 66 83 95 92 75 66 45 39 41 37 37 38 37 32 35
72 63 79 97 98 98 98 99 98 96 94 88 85 85 95 97 94 96 94 90 84 74 68 61 62 59 61 64 82 90 94 94 94 96 93 80 92 87 78 80 91 83 65 60 57 48 47 43 38 40 39 40 43 45
75 70 61 62 71 82 93 94 92 92 86 91 92 94 96 94 97 95 83 80 74 62 57 57 61 56 62 83 94 97 97 91 94 95 90 92 89 92 86 86 81 75 70 63 59 51 45 44 44 42 39 40 44 53
77 76 70 68 61 58 55 51 55 64 78 79 70 69 61 70 67 68 69 68 73 74 61 57 60 71 89 99 96 95 87 86 95 91 85 88 81 81 77 75 74 72 70 60 48 38 41 42 41 45 51 58 62 61
59 65 72 73 71 72 70 73 74 69 74 82 78 80 65 60 66 66 62 63 75 81 67 63 68 86 98 97 86 83 83 83 79 95 92 74 74 77 72 67 61 56 54 49 45 44 44 45 45 51 60 65 68 66
49 53 58 62 66 66 77 82 81 81 84 92 92 87 81 80 76 76 75 75 76 69 60 62 78 97 93 83 82 79 78 72 80 92 71 58 53 50 47 45 42 40 40 41 40 38 37 37 42 50 57 60 69 69
49 57 56 51 56 67 74 94 93 95 90 89 91 87 93 91 98 95 91 72 73 62 54 75 98 85 81 81 77 72 77 95 78 63 50 43 38 35 34 34 34 36 36 36 36 34 36 40 46 49 59 66 71 69
55 58 56 52 53 70 89 90 98 98 92 83 89 88 86 84 90 98 98 95 89 87 86 97 84 74 76 65 70 81 73 57 51 45 39 38 37 38 39 40 41 41 42 45 47 46 45 46 43 48 64 71 70 68
48 49 46 48 53 69 91 89 92 95 94 89 77 73 74 78 80 78 83 91 95 96 98 94 81 73 63 60 71 59 52 55 56 48 44 42 41 41 43 46 47 49 50 55 60 63 56 53 53 60 70 66 63 62
45 44 45 48 51 64 77 86 90 85 88 93 89 88 85 85 85 83 82 76 71 72 77 84 84 89 83 81 77 75 76 75 72 67 66 57 50 52 54 56 58 57 63 69 74 69 72 69 71 80 73 66 63 63
57 60 56 55 58 69 85 91 91 85 80 78 80 88 91 88 83 81 79 79 77 78 76 81 80 78 77 76 72 69 69 72 69 66 61 58 56 58 63 72 74 74 79 86 91 92 94 93 88 76 68 66 68 70
60 53 62 65 75 76 79 81 80 78 76 78 82 83 89 92 92 90 88 84 86 85 86 86 85 83 81 79 80 82 83 85 87 84 79 65 60 68 84 88 95 94 91 89 86 84 82 80 77 72 71 74 76 77
68 64 73 70 59 57 65 63 66 68 70 70 78 84 90 93 95 91 92 93 93 92 90 90 90 90 89 88 89 89 90 90 89 82 74 70 73 91 96 96 95 94 91 88 84 82 77 74 73 74 77 79 82 84
83 84 80 73 65 59 48 55 54 60 66 66 75 86 93 93 90 92 96 97 96 93 90 90 89 88 88 87 88 88 87 85 84 81 77 78 87 95 96 98 96 94 94 91 87 85 83 80 79 80 81 84 87 89
97 95 97 94 86 82 68 63 65 66 70 66 83 92 87 82 82 88 87 90 89 88 88 88 89 88 87 86 89 90 90 88 88 87 88 88 92 96 97 96 97 96 97 96 92 90 90 89 88 87 89 90 93 95
97 97 97 96 96 96 94 88 82 83 77 78 79 79 77 72 72 88 89 81 77 74 71 72 69 70 72 75 77 88 96 95 94 92 92 92 92 94 96 97 97 97 97 98 98 97 97 96 95 95 95 97 98 98
96 97 98 98 98 98 97 91 86 85 78 80 78 75 72 70 81 86 81 77 72 69 66 63 61 57 54 49 46 59 80 94 98 97 95 93 92 95 97 98 98 98 98 98 98 98 98 98 98 98 99 98 98 96
98 97 98 98 98 99 98 98 97 95 89 81 81 84 84 86 81 75 76 73 70 66 63 60 58 55 51 48 48 48 48 64 84 93 94 94 95 97 98 97 97 98 98 97 98 98 98 98 98 98 98 97 96 96
94 94 96 97 95 98 97 98 98 98 98 97 92 91 89 86 85 85 83 80 77 74 70 67 63 62 57 55 56 51 46 52 64 75 79 84 89 92 96 97 97 98 98 98 98 98 98 98 98 98 98 98 98 98
89 88 96 91 93 97 97 96 97 98 98 99 98 98 98 99 98 98 98 95 92 90 89 87 83 80 76 69 69 68 58 56 62 67 74 74 76 80 83 88 94 97 98 98 98 98 98 98 98 98 98 98 98 98
66 78 80 82 87 90 86 86 91 91 95 98 98 96 96 99 98 94 95 96 94 93 95 96 96 94 91 86 80 76 72 72 74 73 77 79 80 80 80 81 85 89 91 97 98 98 98 98 98 98 98 98 98 98
54 55 59 69 75 71 76 74 77 96 99 98 98 98 97 97 97 98 96 95 95 94 97 98 98 97 95 94 92 86 82 82 83 83 83 82 81 81 80 79 81 86 90 92 95 98 98 98 98 98 98 98 98 98
57 55 61 54 52 55 61 66 70 93 98 98 99 99 97 96 98 100 99 98 97 95 94 97 99 99 98 97 97 92 88 88 87 86 84 83 82 80 79 79 78 80 84 89 91 93 95 98 98 98 98 98 98 98

GFSWCAN_prec_cthk_171.txt.gz
RH
78 78 77 80 82 85 83 84 98 81 90 92 93 98 92 82 73 77 61 63 85 97 92 90 89 88 82 79 76 68 63 61 67 81 90 84 79 77 78 58 58 74 88 96 96 96 87 82 83 92 92 76 75 86
79 86 85 87 82 84 90 93 94 82 91 91 91 96 97 88 80 84 73 64 89 99 96 90 86 82 74 67 69 64 59 62 79 83 98 88 96 91 82 85 68 80 89 98 91 87 80 87 92 90 94 91 81 83
96 85 80 95 99 90 86 92 91 86 92 95 92 93 99 92 85 81 80 72 81 94 86 81 71 69 67 58 53 54 59 63 72 86 90 81 78 68 72 69 74 79 82 98 97 88 75 70 79 77 90 92 96 84
90 87 90 96 95 89 94 96 86 91 95 95 94 92 98 94 89 87 84 79 77 83 87 72 61 54 52 50 49 51 54 57 60 65 71 74 76 70 70 64 69 66 76 78 75 73 66 60 68 65 76 94 85 74
96 96 97 96 96 95 95 91 92 94 99 95 94 90 98 93 94 92 86 85 90 92 87 71 62 53 55 51 45 44 44 46 52 63 71 70 65 76 70 72 55 58 63 66 63 61 63 56 63 67 77 85 79 67
94 87 85 85 87 90 94 97 98 99 97 85 85 94 97 98 98 98 94 89 95 97 92 87 73 68 58 50 46 45 49 57 70 79 84 81 77 91 90 67 46 52 51 60 58 53 58 51 62 80 83 79 66 73
98 93 89 89 87 87 89 89 85 84 81 91 95 92 98 98 94 88 80 81 90 95 94 86 79 65 54 53 53 56 65 78 89 96 90 92 81 92 93 76 48 52 48 43 49 52 47 66 81 77 96 85 68 69
97 96 93 90 92 91 90 84 78 81 89 96 98 96 98 99 98 95 92 86 88 97 92 85 74 67 60 59 68 79 79 81 77 82 87 95 92 95 86 52 46 48 48 42 43 50 68 88 74 78 75 72 62 53
98 95 90 89 94 96 96 94 86 84 90 97 99 99 98 95 92 88 96 93 91 87 83 76 68 68 68 73 74 75 78 83 80 88 92 96 96 85 60 60 49 47 47 47 49 70 89 81 63 62 58 45 36 37
97 99 94 91 91 94 96 97 96 94 89 95 98 99 97 97 94 95 99 98 92 82 76 66 60 62 64 75 78 79 74 72 86 84 92 97 89 77 64 54 56 71 77 86 91 91 95 84 61 49 42 40 35 35
97 97 96 91 91 92 94 97 98 96 96 97 97 95 98 99 99 98 98 98 93 80 66 59 65 68 67 79 85 79 76 82 91 89 97 95 92 92 83 68 66 75 90 98 96 94 64 54 40 44 47 43 42 38
98 98 98 99 91 91 90 93 97 99 97 93 92 94 97 98 98 97 95 96 86 72 59 60 66 61 64 70 83 73 83 90 94 98 98 96 98 97 84 75 73 77 79 82 69 70 66 45 43 47 44 41 42 39
68 88 94 96 98 98 97 92 96 98 95 92 93 93 95 96 94 88 80 81 78 62 57 62 64 61 65 66 73 86 93 95 96 97 94 97 99 95 95 93 86 82 80 77 73 61 53 54 51 44 43 44 44 45
70 65 65 68 72 77 84 92 96 98 98 94 86 92 92 88 83 79 77 74 68 67 62 63 62 65 65 73 88 97 93 86 90 95 98 90 88 87 85 83 82 81 78 71 59 54 51 50 46 44 43 42 46 50
75 73 69 63 70 70 70 68 67 76 78 81 74 74 62 57 57 63 70 73 71 72 71 73 76 67 70 89 97 87 87 80 86 98 93 83 82 81 79 76 69 66 63 60 55 52 50 48 45 41 42 41 42 48
58 64 69 69 68 76 80 74 72 71 77 81 82 81 79 78 73 68 65 66 74 76 77 72 74 72 82 94 93 85 83 82 98 93 73 62 58 54 50 49 47 44 45 45 44 42 39 39 37 36 37 40 41 46
45 55 59 60 62 71 87 93 93 89 90 92 91 84 87 87 85 83 74 66 71 66 70 64 66 69 89 97 84 81 88 91 92 83 65 52 49 47 46 42 40 38 37 37 38 38 38 37 38 38 38 44 46 48
53 55 56 55 52 69 85 91 97 94 92 92 91 92 89 88 95 96 96 92 80 67 60 58 58 94 92 81 88 92 84 81 79 67 56 47 42 40 38 38 39 41 43 44 44 45 46 45 44 44 46 48 55 56
54 56 54 51 48 57 86 91 92 95 98 90 78 73 76 81 86 92 97 92 79 75 77 81 90 91 90 90 92 89 81 74 66 56 49 46 43 42 42 43 44 45 46 50 52 53 56 61 59 58 55 59 69 66
47 45 43 42 45 56 69 81 90 89 93 93 81 84 90 93 93 91 88 93 95 98 98 98 99 99 99 98 92 84 81 77 77 78 74 72 67 59 53 53 57 59 59 59 62 70 73 74 78 78 73 75 82 77
50 50 45 44 46 60 72 83 93 92 93 87 80 82 86 90 90 90 89 89 90 94 95 87 89 93 94 88 85 80 74 72 71 70 71 71 69 67 62 60 67 73 77 77 76 79 88 91 92 88 92 90 80 72
67 63 60 64 67 67 67 75 86 91 89 84 83 82 86 88 87 89 88 87 87 87 87 86 84 82 80 77 78 77 77 76 76 76 81 83 88 85 73 70 83 88 88 89 85 83 84 86 84 84 83 80 77 76
70 71 78 77 71 72 80 77 77 77 79 77 74 83 93 96 98 92 91 88 86 85 83 82 81 80 78 77 77 80 82 82 83 84 89 90 89 80 71 87 98 98 95 91 87 86 84 83 81 79 78 79 80 80
86 88 88 86 80 73 58 61 62 63 68 69 75 82 86 89 94 97 97 95 94 90 88 89 87 85 84 83 82 82 83 85 87 87 85 85 82 76 81 97 95 95 96 94 90 89 87 86 84 81 80 81 83 84
97 97 98 93 93 89 81 75 71 71 71 72 77 88 92 93 98 98 98 92 90 92 89 88 89 90 89 89 87 84 83 88 89 89 88 86 86 84 89 92 92 93 95 94 93 91 90 89 88 88 88 88 90 91
97 98 97 97 96 96 98 97 90 83 82 85 83 77 81 93 97 98 94 86 81 77 77 77 75 71 69 66 64 67 68 77 93 95 94 90 88 91 92 93 95 95 93 94 93 94 95 95 95 94 94 94 95 96
97 97 97 98 98 98 98 98 98 99 94 91 90 87 84 92 94 97 90 84 81 76 73 72 70 66 58 55 51 47 47 50 68 95 96 94 92 92 93 93 95 97 97 97 96 96 97 98 98 97 96 97 97 97
97 96 98 98 98 98 98 98 98 98 98 96 93 94 91 90 91 86 86 85 82 77 72 69 65 60 57 55 51 48 48 48 55 64 80 93 95 96 97 97 96 97 98 98 98 98 98 98 98 97 97 97 97 98
93 94 97 92 93 98 98 98 98 98 99 98 98 98 94 91 90 89 87 85 80 75 73 70 67 65 63 61 61 56 55 55 55 60 70 73 77 80 86 91 95 97 98 98 98 98 98 98 98 98 98 98 98 98
82 84 96 88 92 97 96 93 95 96 95 98 97 99 98 99 95 92 90 86 83 82 83 84 82 81 80 80 79 75 72 70 65 64 65 70 76 75 73 76 79 82 87 93 97 98 98 98 98 98 98 98 98 98
51 51 65 74 84 90 82 80 76 87 97 99 98 98 98 98 98 97 98 98 96 94 94 94 94 94 93 93 93 89 83 80 79 77 76 74 73 76 77 77 76 77 80 84 87 91 96 98 98 98 98 98 98 98
47 55 58 59 53 55 65 69 78 98 98 97 98 99 99 98 99 99 99 98 97 96 97 97 97 97 97 99 98 97 94 90 87 86 86 85 85 83 81 79 77 79 81 85 89 89 90 94 98 98 98 98 98 98
53 57 52 52 51 50 53 64 72 93 99 99 98 96 95 96 98 100 99 99 99 99 98 98 98 98 99 99 99 99 98 98 92 89 88 88 85 83 81 80 80 80 80 81 84 89 90 90 92 96 98 98 98 98